Regional Weather Roundup
Issued by NWS

Home | Current Version | Previous Version | Graphics & Text | Print | Product List | Glossary Off
Versions: 1 2 3 4 5 6 7 8 9 10 11 12 13 14 15 16 17 18 19 20 21 22 23 24 25 26 27 28 29 30 31 32 33 34 35 36 37 38 39 40 41 42 43 44 45 46 47 48 49 50

000
ASUS43 KMKX 280700
RWRWI

WISCONSIN REGIONAL WEATHER ROUNDUP
NATIONAL WEATHER SERVICE MILWAUKEE/SULLIVAN WI
200 AM CDT WED SEP 28 2016

NOTE: "FAIR" INDICATES FEW OR NO CLOUDS BELOW 12,000 FEET WITH NO
SIGNIFICANT WEATHER AND/OR OBSTRUCTIONS TO VISIBILITY.

WIZ001-002-006>008-014>016-023>028-280800-
NORTHWEST WISCONSIN

CITY           SKY/WX    TMP DP  RH WIND       PRES   REMARKS
SUPERIOR ARPT  CLEAR     52  48  86 N12       29.91R
ASHLAND        CLOUDY    52  50  93 N10       29.87R
HAYWARD        LGT RAIN  50  47  89 VRB6      29.88R
SIREN          PTCLDY    44  44  97 W3        29.91R
CUMBERLAND     CLOUDY    46  45  93 N10       29.88R
RICE LAKE      CLOUDY    49  46  87 NW7       29.89R
CHETEK         NOT AVBL
LADYSMITH      CLOUDY    49  48  93 NW7       29.85S
EAU CLAIRE     CLOUDY    49  47  93 NW6       29.85S
MENOMONIE      CLOUDY    48  48 100 NW9       29.87S
NEW RICHMOND   CLOUDY    48  47  96 NW7       29.90S
OSCEOLA        CLOUDY    49  49 100 N7        29.94S
$$

WIZ003>005-009-010-017-018-280800-
NORTH CENTRAL WISCONSIN

CITY           SKY/WX    TMP DP  RH WIND       PRES   REMARKS
MANITOWISH WTR NOT AVBL
ARBOR VITAE    CLOUDY    52  51  97 N3        29.79R
WOODRUFF       CLOUDY    52  51  97 N3        29.79R
RHINELANDER    CLOUDY    50  50 100 NW5       29.79R
EAGLE RIVER    CLOUDY    49  49 100 CALM      29.79R
LAND O LAKES   CLOUDY    51  50  97 N6        29.80R
PHILLIPS       CLOUDY    48  48 100 NW6       29.81R
TOMAHAWK       CLOUDY    47  46  95 NW6       29.80R FOG
MEDFORD        CLOUDY    47  47 100 N10       29.80R
MERRILL        CLOUDY    48  47  97 N5        29.79S
$$

WIZ029-030-035-036-043>047-280800-
CENTRAL WISCONSIN

CITY           SKY/WX    TMP DP  RH WIND       PRES   REMARKS
WAUSAU         CLOUDY    49  46  90 NW7       29.78R
MOSINEE        CLOUDY    46  46 100 NW5       29.80R
MARSHFIELD     CLOUDY    49  46  90 NW9       29.80R
STEVENS POINT  CLOUDY    46  46 100 NW6       29.80R
WAUPACA        CLOUDY    52  50  93 NW5       29.78S
WAUTOMA        CLOUDY    49  47  93 NW8       29.79S
WISC RAPIDS    CLOUDY    49  48  97 NW6       29.81R
CAMP DOUGLAS   CLOUDY    48  47  95 NW7       29.82R
$$

WIZ011>013-019>022-031-037>040-048>050-280800-
NORTHEAST WISCONSIN

CITY           SKY/WX    TMP DP  RH WIND       PRES   REMARKS
ANTIGO         CLOUDY    47  47 100 CALM      29.78R
SHAWANO        CLOUDY    51  48  89 CALM      29.77R
OCONTO         NOT AVBL
STURGEON BAY   CLOUDY    52  49  89 NW6       29.77R
GREEN BAY      CLOUDY    50  50 100 NW6       29.77R
MANITOWOC      NOT AVBL
APPLETON       CLOUDY    48  48 100 NW10      29.75S
CLINTONVILLE   NOT AVBL
OSHKOSH        CLOUDY    50  48  93 NW7       29.77R
$$

WIZ032>034-041-042-053>061-280800-
SOUTHWEST WISCONSIN

CITY           SKY/WX    TMP DP  RH WIND       PRES   REMARKS
LA CROSSE      CLOUDY    52  48  86 N9        29.85R
SPARTA         CLOUDY    48  47  97 W3        29.84S
VIROQUA        CLOUDY    47  46  97 NW7       29.83S
BOSCOBEL       CLOUDY    51  46  83 NW6       29.84R
PRAIRIE DU CHI CLOUDY    50  45  81 NW3       29.84R
PLATTEVILLE    CLOUDY    48  48 100 NW3       29.82S
$$

WIZ056-057-062-063-064-067-068-280800-
SOUTH CENTRAL WISCONSIN

CITY           SKY/WX    TMP DP  RH WIND       PRES   REMARKS
REEDSBURG      NOT AVBL
BARABOO/DELLS  CLOUDY    47  46  95 NW5       29.80S FOG
LONE ROCK      NOT AVBL
MINERAL POINT  MOCLDY    48  46  93 NW5       29.82R
MADISON        CLOUDY    49  47  93 NW5       29.79S
MIDDLETON      CLOUDY    49  49  99 W6        29.81R
WATERTOWN      CLOUDY    48  48 100 CALM      29.78S
MONROE         DRIZZLE   46  46 100 W3        29.80R
JANESVILLE     DRIZZLE   50  48  93 CALM      29.79R
$$

WIZ051-052-058>065-066-070>072-280800-
SOUTHEAST WISCONSIN

CITY           SKY/WX    TMP DP  RH WIND       PRES   REMARKS
MILWAUKEE      LGT RAIN  51  48  89 NW5       29.79S
WAUKESHA       LGT RAIN  46  45  93 CALM      29.79S
MILWAUKEE/TIMM RAIN      48  45  87 SW3       29.79S
RACINE         CLOUDY    50  46  86 CALM      29.80S
BURLINGTON     DRIZZLE   47  45  91 CALM      29.78S
KENOSHA        CLOUDY    51  46  83 CALM      29.79S
FOND DU LAC    CLOUDY    49  47  93 NW6       29.77S
SHEBOYGAN      PTCLDY    49  47  93 SW5       29.77R
WEST BEND      CLOUDY    48  46  93 W5        29.78R
JUNEAU         CLOUDY    47  47  97 CALM      29.79S
$$

LSZ147-162-280800-
LAKE SUPERIOR

STATION/POSITION TIME  TEMP    WIND        PRES    WAVE
                       AIR SEA DIR/SP/G            HT/PER
                 (UTC) (F)     (DEG/KT/KT) (MB)    (FT/S)
W MID LAKE BUOY  0550   54 53   40/ 21/ 25 1009.7R   5/ 5
DEVILS ISLAND    0600   53     350/ 17/ 20 1011.5R
SAXON HARBOR     0606   56     360/ 20/ 25 1010.2
$$

LMZ867-665-643>646-280800-
LAKE MICHIGAN

STATION/POSITION TIME  TEMP    WIND        PRES    WAVE
                       AIR SEA DIR/SP/G            HT/PER
                 (UTC) (F)     (DEG/KT/KT) (MB)    (FT/S)
CHAMBERS ISLAND  0600   53     290/  4/  8 1007.1R
S GREEN BAY BUOY 0500   54 62  300/ 10/ 12 1006.7
N MID LAKE BUOY  0550   56 66   80/  6/  8 1006.5R   2/ 6
NORTHPORT PIER   0600   55     290/  5/  7 1007.1R
SISTER BAY       0608   54     350/ 10/ 11   N/A
KEWAUNEE LAKESHO 0600   50     300/  4/  6 1006.9R
SHEBOYGAN LAKESH 0600   50     270/  9/ 10 1007.7R
PORT WASHINGTON  0600   51     270/  4/  6 1009.1
ATWATER BUOY     0600   51     240/  8/ 10 1008.6R
MILWAUKEE LAKESH 0610   51     270/  5/  7   N/A
S MID LAKE BUOY  0550   57 70  310/ 12/ 16 1008.0S   2/ 4
KENOSHA   LAKESH 0600   53     270/  4/  7 1008.8F
$$

TC  - TEMPERATURE IN CELSIUS
VSB - VISIBILITY IN STATUTE MILES
WCI - WIND CHILL INDEX
HX  - HEAT INDEX





USA.gov is the U.S. government's official web portal to all federal, state and local government web resources and services.